Time,TemperatureF,DewpointF,PressureIn,WindDirection,WindDirectionDegrees,WindSpeedMPH,WindSpeedGustMPH,Humidity,HourlyPrecipIn,Conditions,Clouds,dailyrainin,SoftwareType,DateUTC
2013-01-09 00:00:00,32.7,32.7,30.19,SSW,193,0.0,0.0,100,0.00,,SCT100,0.00,VWS V14.01,2013-01-09 05:00:00,
2013-01-09 00:01:00,32.7,32.7,30.19,SSW,193,0.0,0.0,100,0.00,,SCT100,0.00,VWS V14.01,2013-01-09 05:01:00,
2013-01-09 00:06:00,32.7,32.7,30.19,SSW,193,0.0,0.0,100,0.00,,SCT100,0.00,VWS V14.01,2013-01-09 05:06:00,
2013-01-09 00:11:00,32.9,32.9,30.19,SSW,193,0.0,0.0,100,0.00,,SCT100,0.00,VWS V14.01,2013-01-09 05:11:00,
2013-01-09 00:16:00,33.1,33.1,30.19,SSW,193,0.0,0.0,100,0.00,,SCT100,0.00,VWS V14.01,2013-01-09 05:16:00,
2013-01-09 00:21:00,33.1,33.1,30.19,SSW,193,0.0,0.0,100,0.00,,SCT100,0.00,VWS V14.01,2013-01-09 05:21:00,
2013-01-09 00:27:00,33.3,33.3,30.19,SSW,193,0.0,0.0,100,0.00,,SCT100,0.00,VWS V14.01,2013-01-09 05:27:00,
2013-01-09 00:32:00,33.4,33.4,30.19,SSW,193,0.0,0.0,100,0.00,,SCT100,0.00,VWS V14.01,2013-01-09 05:32:00,
2013-01-09 00:37:00,33.6,33.6,30.19,SSW,194,0.0,0.0,100,0.00,,SCT100,0.00,VWS V14.01,2013-01-09 05:37:00,
2013-01-09 00:42:00,33.6,33.6,30.19,SSW,194,0.0,0.0,100,0.00,,OVC100,0.00,VWS V14.01,2013-01-09 05:42:00,
2013-01-09 00:47:00,33.8,33.8,30.19,SSW,196,0.0,0.0,100,0.00,,OVC100,0.00,VWS V14.01,2013-01-09 05:47:00,
2013-01-09 00:52:00,34.0,34.0,30.19,SSW,193,0.0,0.0,100,0.00,,OVC100,0.00,VWS V14.01,2013-01-09 05:52:00,
2013-01-09 00:57:00,34.0,34.0,30.19,SSW,193,0.0,0.0,100,0.00,,OVC100,0.00,VWS V14.01,2013-01-09 05:57:00,
2013-01-09 01:02:00,34.2,34.2,30.19,SSW,193,0.0,0.0,100,0.00,,OVC100,0.00,VWS V14.01,2013-01-09 06:02:00,
2013-01-09 01:07:00,34.2,34.2,30.19,SSW,193,0.0,0.0,100,0.00,,OVC100,0.00,VWS V14.01,2013-01-09 06:07:00,
2013-01-09 01:12:00,34.2,34.2,30.19,SSW,193,0.0,0.0,100,0.00,,OVC100,0.00,VWS V14.01,2013-01-09 06:12:00,
2013-01-09 01:17:00,34.2,34.2,30.19,SSW,193,0.0,0.0,100,0.00,,OVC100,0.00,VWS V14.01,2013-01-09 06:17:00,
2013-01-09 01:22:00,34.3,34.3,30.19,SSW,193,0.0,0.0,100,0.00,,OVC100,0.00,VWS V14.01,2013-01-09 06:22:00,
2013-01-09 01:27:00,34.3,34.3,30.19,SSW,193,0.0,0.0,100,0.00,,OVC100,0.00,VWS V14.01,2013-01-09 06:27:00,
2013-01-09 01:32:00,34.5,34.5,30.19,SSW,195,0.0,0.0,100,0.00,,OVC100,0.00,VWS V14.01,2013-01-09 06:32:00,
2013-01-09 01:37:00,34.5,34.5,30.19,SSW,193,0.0,0.0,100,0.00,,OVC100,0.00,VWS V14.01,2013-01-09 06:37:00,
2013-01-09 01:42:00,34.3,34.3,30.19,SSW,193,0.0,0.0,100,0.00,,OVC100,0.00,VWS V14.01,2013-01-09 06:42:00,
2013-01-09 01:48:00,34.3,34.3,30.19,SSW,193,0.0,0.0,100,0.00,,OVC100,0.00,VWS V14.01,2013-01-09 06:48:00,
2013-01-09 01:53:00,34.3,34.3,30.19,SSW,193,0.0,0.0,100,0.00,,OVC100,0.00,VWS V14.01,2013-01-09 06:53:00,
2013-01-09 01:58:00,34.3,34.3,30.22,SSW,193,0.0,0.0,100,0.00,,OVC100,0.00,VWS V14.01,2013-01-09 06:58:00,
2013-01-09 02:03:00,34.5,34.5,30.22,SSW,193,0.0,0.0,100,0.00,,OVC100,0.00,VWS V14.01,2013-01-09 07:03:00,
2013-01-09 02:08:00,34.5,34.5,30.22,SSW,193,0.0,0.0,100,0.00,,OVC100,0.00,VWS V14.01,2013-01-09 07:08:00,
2013-01-09 02:13:00,34.5,34.5,30.22,SSW,193,4.4,5.6,100,0.00,,OVC100,0.00,VWS V14.01,2013-01-09 07:13:00,
2013-01-09 02:18:00,34.7,34.7,30.22,SSW,193,5.2,6.6,100,0.00,,OVC100,0.00,VWS V14.01,2013-01-09 07:18:00,
2013-01-09 02:23:00,34.9,34.9,30.22,SSW,193,5.2,6.6,100,0.00,,OVC100,0.00,VWS V14.01,2013-01-09 07:23:00,
2013-01-09 02:28:00,35.1,35.1,30.22,SSW,193,4.4,6.6,100,0.00,,OVC100,0.00,VWS V14.01,2013-01-09 07:28:00,
2013-01-09 02:33:00,35.4,35.4,30.22,SSW,192,5.2,6.6,100,0.00,,OVC100,0.00,VWS V14.01,2013-01-09 07:33:00,
2013-01-09 02:38:00,35.8,35.8,30.22,SSW,193,6.6,8.5,100,0.00,,OVC070,0.00,VWS V14.01,2013-01-09 07:38:00,
2013-01-09 02:43:00,36.1,36.1,30.22,SSW,193,5.2,6.6,100,0.00,,OVC070,0.00,VWS V14.01,2013-01-09 07:43:00,
2013-01-09 02:48:00,36.3,36.3,30.22,SSW,193,0.0,0.0,100,0.00,,OVC070,0.00,VWS V14.01,2013-01-09 07:48:00,
2013-01-09 02:53:00,36.9,36.9,30.22,SSW,193,0.0,0.0,100,0.00,,OVC070,0.00,VWS V14.01,2013-01-09 07:53:00,
2013-01-09 02:58:00,37.2,37.2,30.22,SSW,194,5.2,7.5,100,0.00,,OVC070,0.00,VWS V14.01,2013-01-09 07:58:00,
2013-01-09 03:03:00,37.4,37.4,30.22,SSW,193,0.0,0.0,100,0.00,,OVC070,0.00,VWS V14.01,2013-01-09 08:03:00,
2013-01-09 03:08:00,37.6,37.6,30.22,SSW,193,4.4,7.5,100,0.00,,OVC070,0.00,VWS V14.01,2013-01-09 08:08:00,
2013-01-09 03:13:00,37.8,37.8,30.22,SSW,193,4.4,7.5,100,0.00,,OVC070,0.00,VWS V14.01,2013-01-09 08:13:00,
2013-01-09 03:18:00,37.9,37.9,30.22,SSW,193,0.0,6.6,100,0.00,,OVC070,0.00,VWS V14.01,2013-01-09 08:18:00,
2013-01-09 03:23:00,38.1,38.1,30.22,SSW,193,0.0,0.0,100,0.00,,OVC070,0.00,VWS V14.01,2013-01-09 08:23:00,
2013-01-09 03:29:00,38.3,38.3,30.22,SSW,193,6.6,8.5,100,0.00,,OVC070,0.00,VWS V14.01,2013-01-09 08:29:00,
2013-01-09 03:34:00,38.5,38.5,30.22,SSW,193,8.9,11.3,100,0.00,,OVC070,0.00,VWS V14.01,2013-01-09 08:34:00,
2013-01-09 03:39:00,38.5,38.5,30.22,South,189,5.9,7.5,100,0.00,,OVC065,0.00,VWS V14.01,2013-01-09 08:39:00,
2013-01-09 03:44:00,38.5,38.5,30.22,South,189,5.9,7.5,100,0.00,,OVC065,0.00,VWS V14.01,2013-01-09 08:44:00,
2013-01-09 03:49:00,38.7,38.7,30.22,South,189,6.6,8.5,100,0.00,,OVC065,0.00,VWS V14.01,2013-01-09 08:49:00,
2013-01-09 03:54:00,38.7,38.7,30.22,South,189,5.2,8.5,100,0.00,,OVC065,0.00,VWS V14.01,2013-01-09 08:54:00,
2013-01-09 03:59:00,38.7,38.7,30.22,South,189,3.7,6.6,100,0.00,,OVC065,0.00,VWS V14.01,2013-01-09 08:59:00,
2013-01-09 04:04:00,38.8,38.8,30.22,South,189,5.2,6.6,100,0.00,,OVC065,0.00,VWS V14.01,2013-01-09 09:04:00,
2013-01-09 04:09:00,38.8,38.8,30.22,South,189,0.0,0.0,100,0.00,,OVC065,0.00,VWS V14.01,2013-01-09 09:09:00,
2013-01-09 04:14:00,38.8,38.8,30.22,South,188,0.0,0.0,100,0.00,,OVC065,0.00,VWS V14.01,2013-01-09 09:14:00,
2013-01-09 04:19:00,39.0,39.0,30.22,South,189,4.4,5.6,100,0.00,,OVC065,0.00,VWS V14.01,2013-01-09 09:19:00,
2013-01-09 04:24:00,39.2,39.2,30.22,South,189,0.0,0.0,100,0.00,,OVC065,0.00,VWS V14.01,2013-01-09 09:24:00,
2013-01-09 04:29:00,39.2,39.2,30.22,South,189,0.0,0.0,100,0.00,,OVC065,0.00,VWS V14.01,2013-01-09 09:29:00,
2013-01-09 04:34:00,39.4,39.4,30.22,South,189,0.0,0.0,100,0.00,,OVC065,0.00,VWS V14.01,2013-01-09 09:34:00,
2013-01-09 04:39:00,39.4,39.4,30.22,South,189,0.0,0.0,100,0.00,,OVC065,0.00,VWS V14.01,2013-01-09 09:39:00,
2013-01-09 04:44:00,39.4,39.4,30.22,South,189,0.0,0.0,100,0.00,,OVC055,0.00,VWS V14.01,2013-01-09 09:44:00,
2013-01-09 04:49:00,39.4,39.4,30.22,South,189,0.0,0.0,100,0.00,,OVC055,0.00,VWS V14.01,2013-01-09 09:49:00,
2013-01-09 04:54:00,39.4,39.4,30.22,South,188,0.0,0.0,100,0.00,,OVC055,0.00,VWS V14.01,2013-01-09 09:54:00,
2013-01-09 04:59:00,39.2,39.2,30.24,South,187,0.0,0.0,100,0.00,,OVC055,0.00,VWS V14.01,2013-01-09 09:59:00,
2013-01-09 05:05:00,39.0,39.0,30.24,South,189,0.0,0.0,100,0.00,,OVC055,0.00,VWS V14.01,2013-01-09 10:05:00,
2013-01-09 05:10:00,39.2,39.2,30.24,SW,230,5.2,8.5,100,0.00,,OVC055,0.00,VWS V14.01,2013-01-09 10:10:00,
2013-01-09 05:15:00,40.5,40.5,30.24,WSW,254,8.1,10.3,100,0.00,,OVC055,0.00,VWS V14.01,2013-01-09 10:15:00,
2013-01-09 05:20:00,42.3,42.3,30.24,SW,222,9.6,16.9,100,0.00,,OVC055,0.00,VWS V14.01,2013-01-09 10:20:00,
2013-01-09 05:25:00,43.0,43.0,30.24,WSW,239,5.9,10.3,100,0.00,,OVC055,0.00,VWS V14.01,2013-01-09 10:25:00,
2013-01-09 05:30:00,43.3,43.3,30.24,West,262,4.4,10.3,100,0.00,,OVC055,0.00,VWS V14.01,2013-01-09 10:30:00,
2013-01-09 05:35:00,43.3,43.3,30.24,WSW,251,5.9,12.2,100,0.00,,OVC055,0.00,VWS V14.01,2013-01-09 10:35:00,
2013-01-09 05:40:00,43.0,43.0,30.24,WSW,242,5.9,10.3,100,0.00,,OVC055,0.00,VWS V14.01,2013-01-09 10:40:00,
2013-01-09 05:45:00,42.8,42.8,30.24,WSW,245,12.5,16.0,100,0.00,,-RA,0.00,VWS V14.01,2013-01-09 10:45:00,
2013-01-09 05:50:00,42.8,42.8,30.24,WSW,246,5.9,8.5,100,0.00,,-RA,0.00,VWS V14.01,2013-01-09 10:50:00,
2013-01-09 05:55:00,42.6,42.6,30.27,WSW,252,8.1,15.0,100,0.00,,-RA,0.00,VWS V14.01,2013-01-09 10:55:00,
2013-01-09 06:00:00,42.6,42.6,30.27,WSW,252,8.9,11.3,100,0.04,,-RA,0.04,VWS V14.01,2013-01-09 11:00:00,
2013-01-09 06:05:00,42.3,42.3,30.27,WSW,251,5.2,6.6,100,0.04,,-RA,0.04,VWS V14.01,2013-01-09 11:05:00,
2013-01-09 06:10:00,42.3,42.3,30.27,WSW,247,5.9,8.5,100,0.04,,-RA,0.04,VWS V14.01,2013-01-09 11:10:00,
2013-01-09 06:15:00,42.1,42.1,30.27,WSW,246,4.4,9.4,100,0.04,,-RA,0.04,VWS V14.01,2013-01-09 11:15:00,
2013-01-09 06:20:00,41.7,41.7,30.27,WSW,251,3.7,8.5,100,0.04,,-RA,0.04,VWS V14.01,2013-01-09 11:20:00,
2013-01-09 06:26:00,41.7,41.7,30.27,WSW,252,5.2,11.3,100,0.04,,-RA,0.04,VWS V14.01,2013-01-09 11:26:00,
2013-01-09 06:31:00,41.7,41.7,30.27,WSW,252,5.9,8.5,100,0.04,,-RA,0.04,VWS V14.01,2013-01-09 11:31:00,
2013-01-09 06:36:00,41.5,41.5,30.27,WSW,248,4.4,6.6,100,0.04,,-RA,0.04,VWS V14.01,2013-01-09 11:36:00,
2013-01-09 06:41:00,41.7,41.7,30.27,WSW,237,0.0,7.5,100,0.04,,-RA,0.04,VWS V14.01,2013-01-09 11:41:00,
2013-01-09 06:46:00,41.5,41.5,30.27,WSW,242,4.4,11.3,100,0.04,,-RA,0.04,VWS V14.01,2013-01-09 11:46:00,
2013-01-09 06:51:00,41.7,41.7,30.27,WSW,247,9.6,12.2,100,0.04,,-RA,0.04,VWS V14.01,2013-01-09 11:51:00,
2013-01-09 06:56:00,41.7,41.7,30.27,SW,225,4.4,5.6,100,0.04,,-RA,0.04,VWS V14.01,2013-01-09 11:56:00,
2013-01-09 07:01:00,41.7,41.7,30.27,WSW,241,0.0,0.0,100,0.00,,-RA,0.04,VWS V14.01,2013-01-09 12:01:00,
2013-01-09 07:06:00,41.7,41.7,30.27,WSW,252,8.9,11.3,100,0.00,,-RA,0.04,VWS V14.01,2013-01-09 12:06:00,
2013-01-09 07:11:00,41.9,41.9,30.27,SW,236,5.9,7.5,100,0.00,,-RA,0.04,VWS V14.01,2013-01-09 12:11:00,
2013-01-09 07:16:00,41.7,41.7,30.27,West,259,6.6,10.3,100,0.00,,-RA,0.04,VWS V14.01,2013-01-09 12:16:00,
2013-01-09 07:21:00,41.9,41.9,30.27,West,259,4.4,11.3,100,0.00,,-RA,0.04,VWS V14.01,2013-01-09 12:21:00,
2013-01-09 07:26:00,42.1,42.1,30.30,SW,232,5.9,10.3,100,0.00,,-RA,0.04,VWS V14.01,2013-01-09 12:26:00,
2013-01-09 07:32:00,41.9,41.9,30.30,WSW,245,8.9,12.2,100,0.00,,-RA,0.04,VWS V14.01,2013-01-09 12:32:00,
2013-01-09 07:37:00,41.9,41.9,30.30,WSW,250,5.9,8.5,100,0.00,,-RA,0.04,VWS V14.01,2013-01-09 12:37:00,
2013-01-09 07:42:00,41.9,41.9,30.30,WSW,247,5.9,7.5,100,0.00,,-RA,0.04,VWS V14.01,2013-01-09 12:42:00,
2013-01-09 07:47:00,41.9,41.9,30.30,WSW,250,0.0,0.0,100,0.00,,-RA,0.04,VWS V14.01,2013-01-09 12:47:00,
2013-01-09 07:52:00,41.7,41.7,30.30,West,260,5.9,8.5,100,0.00,,-RA,0.04,VWS V14.01,2013-01-09 12:52:00,
2013-01-09 07:57:00,41.7,41.7,30.30,West,260,5.2,6.6,100,0.00,,-RA,0.04,VWS V14.01,2013-01-09 12:57:00,
2013-01-09 08:02:00,41.7,41.7,30.30,West,260,0.0,0.0,100,0.00,,-RA,0.04,VWS V14.01,2013-01-09 13:02:00,
2013-01-09 08:07:00,41.9,41.9,30.30,South,169,4.4,5.6,100,0.00,,-RA,0.04,VWS V14.01,2013-01-09 13:07:00,
2013-01-09 08:12:00,42.1,42.1,30.30,WSW,248,4.4,10.3,100,0.00,,-RA,0.04,VWS V14.01,2013-01-09 13:12:00,
2013-01-09 08:17:00,42.1,42.1,30.30,West,261,5.2,8.5,100,0.00,,-RA,0.04,VWS V14.01,2013-01-09 13:17:00,
2013-01-09 08:22:00,41.9,41.9,30.30,WSW,256,6.6,8.5,100,0.04,,-RA,0.08,VWS V14.01,2013-01-09 13:22:00,
2013-01-09 08:27:00,41.9,41.9,30.30,WSW,256,0.0,5.6,100,0.04,,-RA,0.08,VWS V14.01,2013-01-09 13:27:00,
2013-01-09 08:32:00,41.7,41.7,30.30,South,184,4.4,6.6,100,0.04,,-RA,0.08,VWS V14.01,2013-01-09 13:32:00,
2013-01-09 08:38:00,41.7,41.7,30.30,South,184,0.0,6.6,100,0.04,,OVC170,0.08,VWS V14.01,2013-01-09 13:38:00,
2013-01-09 08:43:00,41.5,41.5,30.30,South,184,0.0,0.0,100,0.04,,OVC170,0.08,VWS V14.01,2013-01-09 13:43:00,
2013-01-09 08:48:00,41.0,41.0,30.30,South,185,0.0,0.0,100,0.04,,OVC170,0.08,VWS V14.01,2013-01-09 13:48:00,
2013-01-09 08:53:00,41.0,41.0,30.30,South,184,0.0,5.6,100,0.04,,OVC170,0.08,VWS V14.01,2013-01-09 13:53:00,
2013-01-09 08:58:00,41.0,41.0,30.33,South,184,0.0,0.0,100,0.04,,OVC170,0.08,VWS V14.01,2013-01-09 13:58:00,
2013-01-09 09:03:00,41.0,41.0,30.33,South,184,0.0,0.0,100,0.04,,OVC170,0.08,VWS V14.01,2013-01-09 14:03:00,
2013-01-09 09:08:00,41.0,41.0,30.33,South,184,0.0,0.0,100,0.04,,OVC170,0.08,VWS V14.01,2013-01-09 14:08:00,
2013-01-09 09:13:00,41.2,41.2,30.33,South,184,0.0,0.0,100,0.04,,OVC170,0.08,VWS V14.01,2013-01-09 14:13:00,
2013-01-09 09:18:00,41.2,41.2,30.33,South,182,0.0,0.0,100,0.04,,OVC170,0.08,VWS V14.01,2013-01-09 14:18:00,
2013-01-09 09:23:00,41.2,41.2,30.33,South,184,0.0,0.0,100,0.00,,OVC170,0.08,VWS V14.01,2013-01-09 14:23:00,
2013-01-09 09:28:00,41.0,41.0,30.33,South,184,0.0,0.0,100,0.00,,OVC170,0.08,VWS V14.01,2013-01-09 14:28:00,
2013-01-09 09:33:00,41.0,41.0,30.33,South,185,0.0,0.0,100,0.00,,OVC170,0.08,VWS V14.01,2013-01-09 14:33:00,
2013-01-09 09:38:00,40.6,40.6,30.33,South,184,0.0,0.0,100,0.00,,OVC170,0.08,VWS V14.01,2013-01-09 14:38:00,
2013-01-09 09:43:00,40.6,40.6,30.33,South,185,0.0,0.0,100,0.00,,BKN250,0.08,VWS V14.01,2013-01-09 14:43:00,
2013-01-09 09:49:00,40.6,40.6,30.33,South,185,0.0,0.0,100,0.00,,BKN250,0.08,VWS V14.01,2013-01-09 14:49:00,
2013-01-09 09:54:00,40.8,40.8,30.33,South,184,0.0,0.0,100,0.00,,,0.08,VWS V14.01,2013-01-09 14:54:00,
2013-01-09 09:59:00,41.0,41.0,30.33,South,184,0.0,0.0,100,0.00,,,0.08,VWS V14.01,2013-01-09 14:59:00,
2013-01-09 10:04:00,41.4,41.4,30.33,South,184,0.0,0.0,100,0.00,,,0.08,VWS V14.01,2013-01-09 15:04:00,
2013-01-09 10:09:00,41.7,41.7,30.33,South,184,0.0,0.0,100,0.00,,,0.08,VWS V14.01,2013-01-09 15:09:00,
2013-01-09 10:14:00,42.1,42.1,30.33,South,184,6.6,8.5,100,0.00,,,0.08,VWS V14.01,2013-01-09 15:14:00,
2013-01-09 10:19:00,42.3,42.3,30.33,South,185,0.0,0.0,100,0.00,,,0.08,VWS V14.01,2013-01-09 15:19:00,
2013-01-09 10:24:00,42.4,42.4,30.33,WSW,237,4.4,6.6,100,0.00,,,0.08,VWS V14.01,2013-01-09 15:24:00,
2013-01-09 10:29:00,42.6,42.6,30.36,WSW,237,0.0,0.0,100,0.00,,,0.08,VWS V14.01,2013-01-09 15:29:00,
2013-01-09 10:34:00,42.8,42.8,30.36,WSW,237,0.0,0.0,100,0.00,,,0.08,VWS V14.01,2013-01-09 15:34:00,
2013-01-09 10:39:00,43.0,43.0,30.36,SW,236,0.0,5.6,100,0.00,,,0.08,VWS V14.01,2013-01-09 15:39:00,
2013-01-09 10:44:00,43.3,43.3,30.36,SW,236,0.0,0.0,100,0.00,,,0.08,VWS V14.01,2013-01-09 15:44:00,
2013-01-09 10:49:00,43.7,43.7,30.36,SSW,212,5.9,9.4,100,0.00,,,0.08,VWS V14.01,2013-01-09 15:49:00,
2013-01-09 10:55:00,44.4,44.4,30.36,South,180,8.1,10.3,100,0.00,,,0.08,VWS V14.01,2013-01-09 15:55:00,
2013-01-09 11:00:00,44.8,44.8,30.36,South,180,5.2,6.6,100,0.00,,,0.08,VWS V14.01,2013-01-09 16:00:00,
2013-01-09 11:05:00,45.3,45.3,30.36,South,180,6.6,8.5,100,0.00,,,0.08,VWS V14.01,2013-01-09 16:05:00,
2013-01-09 11:10:00,45.5,45.5,30.36,SSE,162,8.9,11.3,100,0.00,,,0.08,VWS V14.01,2013-01-09 16:10:00,
2013-01-09 11:15:00,45.9,45.9,30.36,SSE,168,9.6,12.2,100,0.00,,,0.08,VWS V14.01,2013-01-09 16:15:00,
2013-01-09 11:20:00,45.7,45.7,30.36,South,186,5.2,6.6,100,0.00,,,0.08,VWS V14.01,2013-01-09 16:20:00,
2013-01-09 11:25:00,45.9,45.9,30.36,South,189,4.4,8.5,100,0.00,,,0.08,VWS V14.01,2013-01-09 16:25:00,
2013-01-09 11:30:00,46.0,46.0,30.36,South,189,5.2,6.6,100,0.00,,,0.08,VWS V14.01,2013-01-09 16:30:00,
2013-01-09 11:35:00,46.0,46.0,30.36,South,189,4.4,7.5,100,0.00,,,0.08,VWS V14.01,2013-01-09 16:35:00,
2013-01-09 11:40:00,46.2,46.2,30.36,South,187,4.4,8.5,100,0.00,,SCT250,0.08,VWS V14.01,2013-01-09 16:40:00,
2013-01-09 11:45:00,46.4,46.4,30.36,SSW,196,3.7,7.5,100,0.00,,SCT250,0.08,VWS V14.01,2013-01-09 16:45:00,
2013-01-09 11:50:00,46.4,46.4,30.36,SSW,207,5.9,7.5,100,0.00,,SCT250,0.08,VWS V14.01,2013-01-09 16:50:00,
2013-01-09 11:55:00,46.6,46.6,30.36,SW,229,6.6,8.5,100,0.00,,SCT250,0.08,VWS V14.01,2013-01-09 16:55:00,
2013-01-09 12:00:00,46.6,46.6,30.36,WSW,247,0.0,5.6,100,0.00,,SCT250,0.08,VWS V14.01,2013-01-09 17:00:00,
2013-01-09 12:05:00,46.8,46.8,30.36,WSW,247,4.4,6.6,100,0.00,,SCT250,0.08,VWS V14.01,2013-01-09 17:05:00,
2013-01-09 12:11:00,47.1,47.1,30.33,South,191,6.6,8.5,100,0.00,,SCT250,0.08,VWS V14.01,2013-01-09 17:11:00,
2013-01-09 12:16:00,47.5,47.5,30.33,SSW,201,6.6,8.5,100,0.00,,SCT250,0.08,VWS V14.01,2013-01-09 17:16:00,
2013-01-09 12:21:00,47.7,47.7,30.33,WSW,252,10.3,13.2,100,0.00,,SCT250,0.08,VWS V14.01,2013-01-09 17:21:00,
2013-01-09 12:26:00,48.4,48.4,30.33,SW,216,3.7,11.3,100,0.00,,SCT250,0.08,VWS V14.01,2013-01-09 17:26:00,
2013-01-09 12:31:00,48.7,48.7,30.33,WSW,237,5.9,8.5,100,0.00,,SCT250,0.08,VWS V14.01,2013-01-09 17:31:00,
2013-01-09 12:36:00,49.3,49.3,30.33,WSW,255,3.7,8.5,100,0.00,,BKN250,0.08,VWS V14.01,2013-01-09 17:36:00,
2013-01-09 12:41:00,49.6,48.8,30.33,WSW,237,3.7,8.5,97,0.00,,BKN250,0.08,VWS V14.01,2013-01-09 17:41:00,
2013-01-09 12:46:00,50.7,47.9,30.33,West,267,5.9,8.5,90,0.00,,BKN250,0.08,VWS V14.01,2013-01-09 17:46:00,
2013-01-09 12:51:00,51.6,46.7,30.33,West,269,4.4,6.6,83,0.00,,BKN250,0.08,VWS V14.01,2013-01-09 17:51:00,
2013-01-09 12:56:00,51.1,47.3,30.33,SSW,205,0.0,10.3,87,0.00,,BKN250,0.08,VWS V14.01,2013-01-09 17:56:00,
2013-01-09 13:01:00,50.9,47.6,30.33,West,263,6.6,10.3,88,0.00,,BKN250,0.08,VWS V14.01,2013-01-09 18:01:00,
2013-01-09 13:06:00,51.3,47.4,30.33,SSW,210,6.6,12.2,87,0.00,,BKN250,0.08,VWS V14.01,2013-01-09 18:06:00,
2013-01-09 13:11:00,51.4,47.6,30.33,WSW,250,5.9,10.3,87,0.00,,BKN250,0.08,VWS V14.01,2013-01-09 18:11:00,
2013-01-09 13:16:00,51.6,47.3,30.33,WSW,249,6.6,8.5,85,0.00,,BKN250,0.08,VWS V14.01,2013-01-09 18:16:00,
2013-01-09 13:21:00,51.4,47.1,30.33,WSW,245,5.2,7.5,85,0.00,,BKN250,0.08,VWS V14.01,2013-01-09 18:21:00,
2013-01-09 13:26:00,51.3,46.9,30.33,SSW,193,4.4,6.6,85,0.00,,BKN250,0.08,VWS V14.01,2013-01-09 18:26:00,
2013-01-09 13:31:00,51.6,47.3,30.33,WSW,244,5.9,7.5,85,0.00,,BKN250,0.08,VWS V14.01,2013-01-09 18:31:00,
2013-01-09 13:36:00,51.8,46.4,30.33,SW,227,5.2,6.6,82,0.00,,BKN250,0.08,VWS V14.01,2013-01-09 18:36:00,
2013-01-09 13:41:00,52.0,46.0,30.33,West,281,6.6,10.3,80,0.00,,BKN250,0.08,VWS V14.01,2013-01-09 18:41:00,
2013-01-09 13:43:00,52.5,45.9,30.33,South,187,10.3,13.2,78,0.00,,BKN250,0.08,VWS V14.01,2013-01-09 18:43:00,
2013-01-09 13:44:00,52.5,45.9,30.33,NW,310,6.6,13.2,78,0.00,,BKN250,0.08,VWS V14.01,2013-01-09 18:44:00,
2013-01-09 13:45:00,52.5,45.4,30.33,West,280,6.6,13.2,76,0.00,,BKN250,0.08,VWS V14.01,2013-01-09 18:45:00,
2013-01-09 13:47:00,52.3,45.2,30.33,WNW,292,9.6,12.2,76,0.00,,BKN250,0.08,VWS V14.01,2013-01-09 18:47:00,
2013-01-09 13:48:00,52.3,45.8,30.33,West,273,8.9,11.3,78,0.00,,BKN250,0.08,VWS V14.01,2013-01-09 18:48:00,
2013-01-09 13:49:00,52.3,45.8,30.33,West,276,9.6,12.2,78,0.00,,BKN250,0.08,VWS V14.01,2013-01-09 18:49:00,
2013-01-09 13:50:00,52.5,45.4,30.33,WNW,293,8.1,12.2,76,0.00,,BKN250,0.08,VWS V14.01,2013-01-09 18:50:00,
2013-01-09 13:55:00,53.1,44.7,30.33,WNW,289,0.0,5.6,73,0.00,,BKN250,0.08,VWS V14.01,2013-01-09 18:55:00,
2013-01-09 14:00:00,52.7,45.5,30.33,NNW,330,6.6,8.5,76,0.00,,BKN250,0.08,VWS V14.01,2013-01-09 19:00:00,
2013-01-09 14:06:00,53.1,45.3,30.33,West,277,4.4,11.3,75,0.00,,BKN250,0.08,VWS V14.01,2013-01-09 19:06:00,
2013-01-09 14:11:00,52.5,44.8,30.33,WNW,299,6.6,11.3,75,0.00,,BKN250,0.08,VWS V14.01,2013-01-09 19:11:00,
2013-01-09 14:16:00,53.1,44.7,30.33,WSW,247,5.2,10.3,73,0.00,,BKN250,0.08,VWS V14.01,2013-01-09 19:16:00,
2013-01-09 14:21:00,53.1,44.7,30.33,WSW,246,4.4,8.5,73,0.00,,BKN250,0.08,VWS V14.01,2013-01-09 19:21:00,
2013-01-09 14:26:00,53.1,43.4,30.33,NW,306,8.9,12.2,70,0.00,,BKN250,0.08,VWS V14.01,2013-01-09 19:26:00,
2013-01-09 14:31:00,53.6,44.0,30.33,WNW,300,6.6,10.3,70,0.00,,BKN250,0.08,VWS V14.01,2013-01-09 19:31:00,
2013-01-09 14:36:00,52.7,44.3,30.33,NW,316,5.9,7.5,73,0.00,,BKN250,0.08,VWS V14.01,2013-01-09 19:36:00,
2013-01-09 14:41:00,53.1,43.4,30.36,SW,234,6.6,8.5,70,0.00,,BKN250,0.08,VWS V14.01,2013-01-09 19:41:00,
2013-01-09 14:46:00,52.7,43.1,30.36,WNW,292,9.6,13.2,70,0.00,,BKN250,0.08,VWS V14.01,2013-01-09 19:46:00,
2013-01-09 14:52:00,52.9,43.9,30.36,WNW,285,8.9,12.2,71,0.00,,BKN250,0.08,VWS V14.01,2013-01-09 19:52:00,
2013-01-09 14:57:00,53.4,43.1,30.36,WNW,283,6.6,11.3,68,0.00,,BKN250,0.08,VWS V14.01,2013-01-09 19:57:00,
2013-01-09 15:02:00,52.9,42.6,30.36,West,276,8.9,16.0,68,0.00,,BKN250,0.08,VWS V14.01,2013-01-09 20:02:00,
2013-01-09 15:07:00,53.6,42.7,30.36,West,281,9.6,12.2,66,0.00,,BKN250,0.08,VWS V14.01,2013-01-09 20:07:00,
2013-01-09 15:12:00,52.7,41.8,30.36,WNW,293,12.5,17.4,66,0.00,,BKN250,0.08,VWS V14.01,2013-01-09 20:12:00,
2013-01-09 15:17:00,53.1,42.1,30.36,WNW,283,8.9,11.3,66,0.00,,BKN250,0.08,VWS V14.01,2013-01-09 20:17:00,
2013-01-09 15:22:00,53.4,41.8,30.36,NW,304,9.6,12.2,65,0.00,,BKN250,0.08,VWS V14.01,2013-01-09 20:22:00,
2013-01-09 15:27:00,52.9,42.0,30.36,WNW,302,9.6,12.2,66,0.00,,BKN250,0.08,VWS V14.01,2013-01-09 20:27:00,
2013-01-09 15:32:00,53.8,42.2,30.36,WNW,296,8.9,11.3,65,0.00,,BKN250,0.08,VWS V14.01,2013-01-09 20:32:00,
2013-01-09 15:37:00,53.4,43.1,30.36,WNW,282,8.9,11.3,68,0.00,,BKN250,0.08,VWS V14.01,2013-01-09 20:37:00,
2013-01-09 15:43:00,52.7,43.7,30.36,WNW,282,5.9,7.5,71,0.00,,BKN250,0.08,VWS V14.01,2013-01-09 20:43:00,
2013-01-09 15:48:00,52.2,43.8,30.36,West,260,4.4,7.5,73,0.00,,BKN250,0.08,VWS V14.01,2013-01-09 20:48:00,
2013-01-09 15:53:00,52.0,44.2,30.36,West,260,5.2,8.5,75,0.00,,BKN250,0.08,VWS V14.01,2013-01-09 20:53:00,
2013-01-09 15:58:00,52.7,44.3,30.36,WSW,239,5.2,10.3,73,0.00,,BKN250,0.08,VWS V14.01,2013-01-09 20:58:00,
2013-01-09 16:03:00,52.5,44.2,30.36,WSW,238,0.0,5.6,73,0.00,,BKN250,0.08,VWS V14.01,2013-01-09 21:03:00,
2013-01-09 16:08:00,52.2,43.8,30.36,SSW,211,5.2,7.5,73,0.00,,BKN250,0.08,VWS V14.01,2013-01-09 21:08:00,
2013-01-09 16:13:00,51.8,44.1,30.39,WSW,239,0.0,6.6,75,0.00,,BKN250,0.08,VWS V14.01,2013-01-09 21:13:00,
2013-01-09 16:18:00,51.6,43.9,30.39,SW,227,0.0,0.0,75,0.00,,BKN250,0.08,VWS V14.01,2013-01-09 21:18:00,
2013-01-09 16:23:00,51.4,43.7,30.39,South,184,0.0,0.0,75,0.00,,BKN250,0.08,VWS V14.01,2013-01-09 21:23:00,
2013-01-09 16:28:00,51.3,43.5,30.39,WSW,244,4.4,6.6,75,0.00,,BKN250,0.08,VWS V14.01,2013-01-09 21:28:00,
2013-01-09 16:33:00,51.1,44.0,30.39,WSW,244,0.0,0.0,76,0.00,,BKN250,0.08,VWS V14.01,2013-01-09 21:33:00,
2013-01-09 16:38:00,50.9,43.2,30.39,WSW,244,0.0,0.0,75,0.00,,BKN250,0.08,VWS V14.01,2013-01-09 21:38:00,
2013-01-09 16:43:00,50.7,43.6,30.39,WSW,244,0.0,10.3,76,0.00,,BKN250,0.08,VWS V14.01,2013-01-09 21:43:00,
2013-01-09 16:48:00,50.5,42.8,30.39,WSW,244,0.0,0.0,75,0.00,,BKN250,0.08,VWS V14.01,2013-01-09 21:48:00,
2013-01-09 16:54:00,50.4,42.1,30.39,WSW,244,4.4,5.6,73,0.00,,BKN250,0.08,VWS V14.01,2013-01-09 21:54:00,
2013-01-09 16:59:00,50.2,41.9,30.39,WSW,244,0.0,5.6,73,0.00,,BKN250,0.08,VWS V14.01,2013-01-09 21:59:00,
2013-01-09 17:04:00,50.0,41.7,30.39,WSW,244,0.0,0.0,73,0.00,,BKN250,0.08,VWS V14.01,2013-01-09 22:04:00,
2013-01-09 17:09:00,49.8,42.2,30.39,WSW,244,0.0,0.0,75,0.00,,BKN250,0.08,VWS V14.01,2013-01-09 22:09:00,
2013-01-09 17:14:00,49.5,41.8,30.39,WSW,243,0.0,0.0,75,0.00,,BKN250,0.08,VWS V14.01,2013-01-09 22:14:00,
2013-01-09 17:19:00,49.1,41.5,30.39,WSW,244,0.0,0.0,75,0.00,,BKN250,0.08,VWS V14.01,2013-01-09 22:19:00,
2013-01-09 17:24:00,48.7,41.1,30.39,WSW,244,0.0,0.0,75,0.00,,BKN250,0.08,VWS V14.01,2013-01-09 22:24:00,
2013-01-09 17:29:00,48.4,40.8,30.39,WSW,245,0.0,0.0,75,0.00,,BKN250,0.08,VWS V14.01,2013-01-09 22:29:00,
2013-01-09 17:34:00,48.0,41.0,30.39,WSW,244,0.0,0.0,76,0.00,,BKN250,0.08,VWS V14.01,2013-01-09 22:34:00,
2013-01-09 17:39:00,47.5,41.6,30.39,WSW,244,0.0,0.0,80,0.00,,BKN250,0.08,VWS V14.01,2013-01-09 22:39:00,
2013-01-09 17:44:00,46.9,41.1,30.39,WSW,244,0.0,0.0,80,0.00,,BKN250,0.08,VWS V14.01,2013-01-09 22:44:00,
2013-01-09 17:49:00,46.6,40.7,30.39,WSW,244,0.0,0.0,80,0.00,,BKN250,0.08,VWS V14.01,2013-01-09 22:49:00,
2013-01-09 17:54:00,46.0,40.7,30.39,WSW,244,0.0,0.0,82,0.00,,BKN250,0.08,VWS V14.01,2013-01-09 22:54:00,
2013-01-09 17:59:00,45.5,40.2,30.39,WSW,244,0.0,0.0,82,0.00,,BKN250,0.08,VWS V14.01,2013-01-09 22:59:00,
2013-01-09 18:04:00,44.8,40.5,30.39,WSW,244,0.0,0.0,85,0.00,,BKN250,0.08,VWS V14.01,2013-01-09 23:04:00,
2013-01-09 18:09:00,44.2,41.0,30.39,WSW,244,0.0,0.0,88,0.00,,BKN250,0.08,VWS V14.01,2013-01-09 23:09:00,
2013-01-09 18:14:00,43.9,41.2,30.39,WSW,244,0.0,0.0,90,0.00,,BKN250,0.08,VWS V14.01,2013-01-09 23:14:00,
2013-01-09 18:19:00,43.5,41.8,30.39,WSW,240,0.0,0.0,94,0.00,,BKN250,0.08,VWS V14.01,2013-01-09 23:19:00,
2013-01-09 18:25:00,43.0,41.2,30.42,WSW,243,0.0,0.0,94,0.00,,BKN250,0.08,VWS V14.01,2013-01-09 23:25:00,
2013-01-09 18:30:00,42.3,41.0,30.42,WSW,245,0.0,0.0,95,0.00,,BKN250,0.08,VWS V14.01,2013-01-09 23:30:00,
2013-01-09 18:35:00,41.5,41.2,30.42,WSW,245,0.0,0.0,99,0.00,,BKN250,0.08,VWS V14.01,2013-01-09 23:35:00,
2013-01-09 18:40:00,41.2,41.2,30.42,WSW,246,0.0,0.0,100,0.00,,BKN250,0.08,VWS V14.01,2013-01-09 23:40:00,
2013-01-09 18:45:00,42.1,42.1,30.42,WSW,244,0.0,4.7,100,0.00,,BKN250,0.08,VWS V14.01,2013-01-09 23:45:00,
2013-01-09 18:50:00,43.0,43.0,30.42,WSW,244,0.0,0.0,100,0.00,,BKN250,0.08,VWS V14.01,2013-01-09 23:50:00,
2013-01-09 18:55:00,43.5,42.7,30.42,WSW,240,0.0,0.0,97,0.00,,BKN250,0.08,VWS V14.01,2013-01-09 23:55:00,
2013-01-09 19:00:00,43.7,41.0,30.42,WSW,244,0.0,7.5,90,0.00,,BKN250,0.00,VWS V14.01,2013-01-10 00:00:00,
2013-01-09 19:05:00,43.3,41.1,30.42,WSW,245,0.0,7.5,92,0.00,,BKN250,0.08,VWS V14.01,2013-01-10 00:05:00,
2013-01-09 19:10:00,42.8,41.1,30.42,WSW,248,0.0,0.0,94,0.00,,BKN250,0.08,VWS V14.01,2013-01-10 00:10:00,
2013-01-09 19:15:00,42.4,41.2,30.42,WSW,249,3.7,5.6,95,0.00,,BKN250,0.08,VWS V14.01,2013-01-10 00:15:00,
2013-01-09 19:20:00,42.3,41.0,30.42,WSW,249,0.0,0.0,95,0.00,,BKN250,0.08,VWS V14.01,2013-01-10 00:20:00,
2013-01-09 19:25:00,41.5,40.3,30.42,WSW,249,0.0,0.0,95,0.00,,BKN250,0.08,VWS V14.01,2013-01-10 00:25:00,
2013-01-09 19:30:00,41.0,39.7,30.42,WSW,249,0.0,0.0,95,0.00,,BKN250,0.08,VWS V14.01,2013-01-10 00:30:00,
2013-01-09 19:35:00,40.5,39.2,30.42,WSW,249,0.0,0.0,95,0.00,,BKN250,0.08,VWS V14.01,2013-01-10 00:35:00,
2013-01-09 19:40:00,39.9,38.7,30.45,WSW,249,0.0,0.0,95,0.00,,BKN250,0.08,VWS V14.01,2013-01-10 00:40:00,
2013-01-09 19:45:00,39.7,38.5,30.45,WSW,249,0.0,0.0,95,0.00,,BKN250,0.08,VWS V14.01,2013-01-10 00:45:00,
2013-01-09 19:50:00,39.6,38.8,30.45,WSW,249,0.0,0.0,97,0.00,,BKN250,0.08,VWS V14.01,2013-01-10 00:50:00,
2013-01-09 19:55:00,39.4,38.6,30.45,WSW,249,0.0,0.0,97,0.00,,BKN250,0.08,VWS V14.01,2013-01-10 00:55:00,
2013-01-09 20:00:00,39.2,38.4,30.45,WSW,249,0.0,0.0,97,0.00,,BKN250,0.08,VWS V14.01,2013-01-10 01:00:00,
2013-01-09 20:05:00,38.8,38.5,30.45,WSW,249,0.0,0.0,99,0.00,,BKN250,0.08,VWS V14.01,2013-01-10 01:05:00,
2013-01-09 20:10:00,38.7,38.3,30.45,WSW,249,0.0,0.0,99,0.00,,BKN250,0.08,VWS V14.01,2013-01-10 01:10:00,
2013-01-09 20:15:00,38.5,38.1,30.45,WSW,249,0.0,0.0,99,0.00,,BKN250,0.08,VWS V14.01,2013-01-10 01:15:00,
2013-01-09 20:20:00,38.3,38.3,30.45,WSW,249,0.0,0.0,100,0.00,,BKN250,0.08,VWS V14.01,2013-01-10 01:20:00,
2013-01-09 20:25:00,38.3,38.3,30.45,WSW,252,0.0,0.0,100,0.00,,BKN250,0.08,VWS V14.01,2013-01-10 01:25:00,
2013-01-09 20:30:00,38.1,38.1,30.45,WSW,249,0.0,0.0,100,0.00,,BKN250,0.08,VWS V14.01,2013-01-10 01:30:00,
2013-01-09 20:35:00,37.9,37.9,30.45,WSW,249,0.0,0.0,100,0.00,,SCT250,0.08,VWS V14.01,2013-01-10 01:35:00,
2013-01-09 20:41:00,37.8,37.8,30.45,WSW,249,0.0,0.0,100,0.00,,SCT250,0.08,VWS V14.01,2013-01-10 01:41:00,
2013-01-09 20:46:00,37.6,37.6,30.45,WSW,249,0.0,0.0,100,0.00,,SCT250,0.08,VWS V14.01,2013-01-10 01:46:00,
2013-01-09 20:51:00,37.4,37.4,30.45,WSW,249,0.0,0.0,100,0.00,,SCT250,0.08,VWS V14.01,2013-01-10 01:51:00,
2013-01-09 20:56:00,37.4,37.4,30.45,WSW,249,0.0,0.0,100,0.00,,SCT250,0.08,VWS V14.01,2013-01-10 01:56:00,
2013-01-09 21:01:00,37.2,37.2,30.45,WSW,249,0.0,0.0,100,0.00,,SCT250,0.08,VWS V14.01,2013-01-10 02:01:00,
2013-01-09 21:06:00,37.0,37.0,30.45,WSW,249,0.0,0.0,100,0.00,,SCT250,0.08,VWS V14.01,2013-01-10 02:06:00,
2013-01-09 21:11:00,37.0,37.0,30.48,WSW,249,0.0,0.0,100,0.00,,SCT250,0.08,VWS V14.01,2013-01-10 02:11:00,
2013-01-09 21:16:00,36.9,36.9,30.48,WSW,249,0.0,0.0,100,0.00,,SCT250,0.08,VWS V14.01,2013-01-10 02:16:00,
2013-01-09 21:21:00,36.7,36.7,30.48,WSW,249,0.0,0.0,100,0.00,,SCT250,0.08,VWS V14.01,2013-01-10 02:21:00,
2013-01-09 21:26:00,36.3,36.3,30.48,WSW,249,0.0,0.0,100,0.00,,SCT250,0.08,VWS V14.01,2013-01-10 02:26:00,
2013-01-09 21:31:00,36.1,36.1,30.48,WSW,249,0.0,0.0,100,0.00,,SCT250,0.08,VWS V14.01,2013-01-10 02:31:00,
2013-01-09 21:37:00,35.8,35.8,30.48,WSW,252,0.0,0.0,100,0.00,,SCT250,0.08,VWS V14.01,2013-01-10 02:37:00,
2013-01-09 21:42:00,35.6,35.6,30.48,WSW,249,0.0,0.0,100,0.00,,SCT250,0.08,VWS V14.01,2013-01-10 02:42:00,
2013-01-09 21:47:00,35.6,35.6,30.48,WSW,249,0.0,0.0,100,0.00,,SCT250,0.08,VWS V14.01,2013-01-10 02:47:00,
2013-01-09 21:52:00,35.4,35.4,30.48,WSW,249,0.0,0.0,100,0.00,,SCT250,0.08,VWS V14.01,2013-01-10 02:52:00,
2013-01-09 21:57:00,35.1,35.1,30.45,WSW,249,0.0,0.0,100,0.00,,SCT250,0.08,VWS V14.01,2013-01-10 02:57:00,
2013-01-09 22:02:00,34.9,34.9,30.45,WSW,249,0.0,0.0,100,0.00,,SCT250,0.08,VWS V14.01,2013-01-10 03:02:00,
2013-01-09 22:07:00,34.9,34.9,30.45,WSW,249,0.0,0.0,100,0.00,,SCT250,0.08,VWS V14.01,2013-01-10 03:07:00,
2013-01-09 22:12:00,34.9,34.9,30.45,WSW,249,0.0,0.0,100,0.00,,SCT250,0.08,VWS V14.01,2013-01-10 03:12:00,
2013-01-09 22:17:00,35.1,35.1,30.45,WSW,250,0.0,0.0,100,0.00,,SCT250,0.08,VWS V14.01,2013-01-10 03:17:00,
2013-01-09 22:22:00,35.1,35.1,30.45,WSW,249,0.0,0.0,100,0.00,,SCT250,0.08,VWS V14.01,2013-01-10 03:22:00,
2013-01-09 22:27:00,34.9,34.9,30.48,WSW,249,0.0,0.0,100,0.00,,SCT250,0.08,VWS V14.01,2013-01-10 03:27:00,
2013-01-09 22:32:00,34.7,34.7,30.48,WSW,249,0.0,0.0,100,0.00,,SCT250,0.08,VWS V14.01,2013-01-10 03:32:00,
2013-01-09 22:37:00,34.5,34.5,30.48,WSW,249,0.0,0.0,100,0.00,,FEW250,0.08,VWS V14.01,2013-01-10 03:37:00,
2013-01-09 22:43:00,34.5,34.5,30.45,WSW,249,0.0,0.0,100,0.00,,FEW250,0.08,VWS V14.01,2013-01-10 03:43:00,
2013-01-09 22:48:00,34.3,34.3,30.45,WSW,249,0.0,0.0,100,0.00,,FEW250,0.08,VWS V14.01,2013-01-10 03:48:00,
2013-01-09 22:53:00,34.3,34.3,30.45,WSW,249,0.0,0.0,100,0.00,,FEW250,0.08,VWS V14.01,2013-01-10 03:53:00,
2013-01-09 22:58:00,34.3,34.3,30.48,WSW,249,0.0,0.0,100,0.00,,FEW250,0.08,VWS V14.01,2013-01-10 03:58:00,
2013-01-09 23:03:00,34.3,34.3,30.48,WSW,249,0.0,0.0,100,0.00,,FEW250,0.08,VWS V14.01,2013-01-10 04:03:00,
2013-01-09 23:08:00,34.3,34.3,30.48,WSW,249,0.0,0.0,100,0.00,,FEW250,0.08,VWS V14.01,2013-01-10 04:08:00,
2013-01-09 23:13:00,34.3,34.3,30.48,WSW,249,0.0,0.0,100,0.00,,FEW250,0.08,VWS V14.01,2013-01-10 04:13:00,
2013-01-09 23:18:00,34.3,34.3,30.48,WSW,249,0.0,0.0,100,0.00,,FEW250,0.08,VWS V14.01,2013-01-10 04:18:00,
2013-01-09 23:23:00,34.3,34.3,30.48,WSW,249,0.0,0.0,100,0.00,,FEW250,0.08,VWS V14.01,2013-01-10 04:23:00,
2013-01-09 23:28:00,34.2,34.2,30.48,WSW,249,0.0,0.0,100,0.00,,FEW250,0.08,VWS V14.01,2013-01-10 04:28:00,
2013-01-09 23:33:00,34.2,34.2,30.48,WSW,249,0.0,0.0,100,0.00,,FEW250,0.08,VWS V14.01,2013-01-10 04:33:00,
2013-01-09 23:38:00,34.0,34.0,30.48,WSW,249,0.0,0.0,100,0.00,,FEW250,0.08,VWS V14.01,2013-01-10 04:38:00,
2013-01-09 23:43:00,34.0,34.0,30.48,WSW,249,0.0,0.0,100,0.00,,FEW250,0.08,VWS V14.01,2013-01-10 04:43:00,
2013-01-09 23:48:00,33.8,33.8,30.48,WSW,249,0.0,0.0,100,0.00,,FEW250,0.08,VWS V14.01,2013-01-10 04:48:00,
2013-01-09 23:53:00,33.8,33.8,30.48,WSW,249,0.0,0.0,100,0.00,,FEW250,0.08,VWS V14.01,2013-01-10 04:53:00,
2013-01-09 23:58:00,33.8,33.8,30.48,WSW,249,0.0,0.0,100,0.00,,FEW250,0.08,VWS V14.01,2013-01-10 04:58:00,